Regional Weather Roundup
Issued by NWS

Home | Current Version | Previous Version | Graphics & Text | Print | Product List | Glossary On
Versions: 1 2 3 4 5 6 7 8 9 10 11 12 13 14 15 16 17 18 19 20 21 22 23 24 25 26 27 28 29 30 31 32 33 34 35 36 37 38 39 40 41 42 43 44 45 46 47 48 49 50
000
ASUS43 KDTX 011910
RWRMI
MICHIGAN HOURLY REGIONAL WEATHER ROUNDUP
NATIONAL WEATHER SERVICE DETROIT/PONTIAC MI
300 PM EDT WED JUL 01 2015

NOTE: "FAIR" INDICATES FEW OR NO CLOUDS BELOW 12,000 FEET WITH NO
SIGNIFICANT WEATHER AND/OR OBSTRUCTION TO VISIBILITY.

MIZ047>049-052>055-059>063-066>070-074>076-081>083-012000-
SOUTHEAST LOWER MICHIGAN

CITY           SKY/WX    TMP DP  RH WIND       PRES   REMARKS
ADRIAN         MOSUNNY   69  56  62 N6        29.92F
ALMA           PTSUNNY   65  54  67 CALM      29.94S
ANN ARBOR      CLOUDY    69  59  70 NW10      29.91F
BAD AXE        CLOUDY    65  57  76 NW6       29.92R
CARO           CLOUDY    66  58  75 W6        29.92S
DETROIT CITY   PTSUNNY   72  58  61 N9        29.90F
DETROIT        PTSUNNY   73  59  61 W8G17     29.90F
FLINT          CLOUDY    67  56  67 NW9       29.93S
GROSSE ILE     MOSUNNY   73  61  64 W5        29.89F
HILLSDALE      MOSUNNY   70  56  61 NW8       29.93F
HOWELL         CLOUDY    63  58  82 NW5       29.93F

CITY           SKY/WX    TMP DP  RH WIND       PRES   REMARKS
JACKSON        PTSUNNY   68  56  65 NW5       29.92F
LAMBERTVILLE   PTSUNNY   72  58  60 W6        29.91F
LANSING        PTSUNNY   66  53  63 NW8       29.94F
LAPEER         CLOUDY    64  57  76 W6        29.92F
MASON          CLOUDY    64  55  73 W6        29.93F
MONROE         PTSUNNY   73  59  60 W9        29.89F
MT. CLEMENS    PTSUNNY   70  60  70 W9        29.89S
PONTIAC        CLOUDY    64  57  78 NW7       29.92S
PORT HOPE        N/A     61  58  90 N5        29.91R
PORT HURON     CLOUDY    70  61  73 W6        29.90S
TRI CITIES     CLOUDY    65  55  70 NW5       29.93S
MIDLAND        CLOUDY    65  54  67 N7        29.92S
TROY           CLOUDY    68  58  69 NW5       29.93F
SAGINAW HB     CLOUDY    64  55  72 NW7       29.93R
$$
MIZ043>046-050>051-056>058-064>065-071>073-077>080-012000-
SOUTHWEST LOWER MICHIGAN

CITY           SKY/WX    TMP DP  RH WIND       PRES   REMARKS
BATTLE CREEK   SUNNY     71  51  49 W10       29.94F
BENTON HARBOR  PTSUNNY   61  50  67 NW7G18    29.98S
BIG RAPIDS     CLOUDY    62  48  61 W7        29.95R
COLDWATER      MOSUNNY   70  54  56 W10G17    29.93S
FREMONT        CLOUDY    61  52  73 NW6       29.96F
HOLLAND        PTSUNNY   62  50  64 NW13G21   29.98S
GRAND RAPIDS   PTSUNNY   68  51  54 NW10      29.93F
IONIA          PTSUNNY   67  51  56 W7        29.93F
KALAMAZOO      SUNNY     70  50  49 NW7G21    29.94F
LUDINGTON      CLOUDY    56  51  84 N9        29.99F
MARSHALL       MOSUNNY   71  55  58 W6        29.93S
MOUNT PLEASANT CLOUDY    66  52  60 W7        29.93S
MUSKEGON       CLOUDY    62  51  67 NW9       29.97F
SOUTH HAVEN    PTSUNNY   61  51  68 N8G22     29.98S
$$
MIZ016>042-012000-
NORTHERN LOWER MICHIGAN

CITY           SKY/WX    TMP DP  RH WIND       PRES   REMARKS
ALPENA         CLOUDY    62  56  80 W7        29.92R
BEAVER ISLAND  SUNNY     63  50  62 N9        29.96S
BELLAIRE       CLOUDY    58  51  78 W6        29.97R
CADILLAC       CLOUDY    60  52  76 N7        29.96R
CHARLEVOIX     CLOUDY    58  52  82 NW7       29.99S
FRANKFORT      CLOUDY    56  47  71 NW9       29.99R
GAYLORD        CLOUDY    57  54  89 NW9       29.95R
GRAYLING       CLOUDY    59  53  82 NW7       29.95R
HARBOR SPRINGS CLOUDY    61  55  79 W6        29.94S
HOUGHTON LAKE  CLOUDY    60  53  77 NW8       29.94F
MANISTEE       CLOUDY    54  46  76 NW12      30.00S
OSCODA         CLOUDY    66  56  69 NW3       29.90S
PELLSTON       CLOUDY    63  53  70 NW9       29.94S
ROGERS CITY    CLOUDY    63  56  79 NW10      29.93S
TRAVERSE CITY  CLOUDY    57  50  77 NW9       29.96R
$$
MIZ007>008-015-012000-
EASTERN UPPER MICHIGAN

CITY           SKY/WX    TMP DP  RH WIND       PRES   REMARKS
KINROSS        CLOUDY    61  52  72 NW16      29.93S
MACKINAC ISLAN CLOUDY    61  55  78 N9        29.93S
NEWBERRY       MOSUNNY   60  49  66 N12G20    29.96S
S. S. MARIE    CLOUDY    61  50  67 NW14      29.93R
MUNISING         N/A     55  46  71 NE9       30.01F
$$
MIZ004>006-011>014-085-012000-
CENTRAL UPPER MICHIGAN

CITY           SKY/WX    TMP DP  RH WIND       PRES   REMARKS
MANISTIQUE     SUNNY     64  48  56 N14G22    29.96S
ESCANABA       SUNNY     64  43  45 NE9G18    29.98S
MENOMINEE      MOSUNNY   64  48  55 SE10      29.99R
SAWYER-GWINN   SUNNY     59  39  47 NE13G18   30.02F
$$
MIZ001>003-009>011-084-012000-
WESTERN UPPER MICHIGAN

CITY           SKY/WX    TMP DP  RH WIND       PRES   REMARKS
IRON MOUNTAIN  SUNNY     68  43  40 VRB7      29.99S
HOUGHTON       MOSUNNY   66  42  41 NW6       30.01S
COPPER HARBOR    N/A     53  45  74 N12       30.02S
IRONWOOD       SUNNY     64  43  45 NW10      30.00S
$$

ABBREVIATIONS USED IN REMARKS
   TC - TEMPERATURE IN CELSIUS
  WCI - WIND CHILL INDEX
   HX - HEAT INDEX
  VSB - VISIBILITY




USA.gov is the U.S. government's official web portal to all federal, state and local government web resources and services.